St. James, MN

4:05 AM CDT on June 23, 2017 (GMT -0500)
Saint James Municipal

Weather History for KJYG - April, 2014

Change the Weather History Date:

Sunday, April 6, 2014

  Actual Average Record
Temperature  
Mean Temperature 50 °F -  
Max Temperature 62 °F 55 °F 83 °F (1991)
Min Temperature 37 °F 31 °F 7 °F (1979)
Degree Days  
Heating Degree Days 16    
Moisture  
Dew Point 38 °F    
Average Humidity 68    
Maximum Humidity 87    
Minimum Humidity 45    
Precipitation  
Precipitation 0.00 in - - ()
Sea Level Pressure  
Sea Level Pressure 29.86 in    
Wind  
Wind Speed 12 mph (South)    
Max Wind Speed 17 mph    
Max Gust Speed 20 mph    
Visibility 10 miles    
Events Thunderstorm    
Averages and records for this station are not official NWS values.
T = Trace of Precipitation, MM = Missing Value Source: NWS Daily Summary

Daily Weather History Graph

Daily Weather History Graph

Search for Another Location

Airport or City:

Trip Planner

Search our weather history database for the weather conditions in past years. The results will help you decide how hot, cold, wet, or windy it might be!

Date:

Astronomy

Apr. 06, 2014 Rise Set
Actual Time 6:50 AM CDT 7:51 PM CDT
Civil Twilight 6:21 AM CDT 8:20 PM CDT
Nautical Twilight 5:46 AM CDT 8:56 PM CDT
Astronomical Twilight 5:09 AM CDT 9:33 PM CDT
Moon 11:45 AM CDT (4/6) 1:54 AM CDT (4/6)
Length of Visible Light 13h 59m
Length of Day
13h 00m
Waxing Crescent, 44% of the Moon is Illuminated
Apr 6
Waxing Crescent
Apr 7
First Quarter
Apr 15
Full
Apr 22
Last Quarter
Apr 29
New

Hourly Weather History & Observations

Time (CDT) Temp. Windchill Dew Point Humidity Pressure Visibility Wind Dir Wind Speed Gust Speed Precip Events Conditions
12:15 AM 39.2 °F 32.5 °F 32.0 °F 75% 29.93 in 10.0 mi SE 10.4 mph - N/A   Clear
12:35 AM 41.0 °F 33.5 °F 32.0 °F 70% 29.93 in 10.0 mi SSE 13.8 mph - N/A   Clear
12:55 AM 42.8 °F 35.4 °F 32.0 °F 66% 29.92 in 10.0 mi SSE 15.0 mph - N/A   Clear
1:14 AM 42.8 °F 35.4 °F 32.0 °F 66% 29.92 in 10.0 mi SSE 15.0 mph 19.6 mph N/A   Clear
1:35 AM 41.0 °F 33.5 °F 32.0 °F 70% 29.92 in 10.0 mi SSE 13.8 mph - N/A   Clear
1:55 AM 39.2 °F 31.6 °F 32.0 °F 75% 29.91 in 10.0 mi SSE 12.7 mph - N/A   Clear
2:15 AM 39.2 °F 31.6 °F 32.0 °F 75% 29.90 in 10.0 mi SSE 12.7 mph - N/A   Clear
2:35 AM 39.2 °F 31.2 °F 32.0 °F 75% 29.90 in 10.0 mi SSE 13.8 mph - N/A   Clear
2:55 AM 39.2 °F 30.8 °F 32.0 °F 75% 29.89 in 10.0 mi SSE 15.0 mph - N/A   Clear
3:15 AM 39.2 °F 31.6 °F 32.0 °F 75% 29.88 in 10.0 mi SSE 12.7 mph - N/A   Clear
3:34 AM 39.2 °F 32.0 °F 32.0 °F 75% 29.88 in 10.0 mi South 11.5 mph - N/A   Clear
3:55 AM 39.2 °F 31.6 °F 32.0 °F 75% 29.88 in 10.0 mi South 12.7 mph 18.4 mph N/A   Scattered Clouds
4:14 AM 37.4 °F 29.3 °F 32.0 °F 81% 29.87 in 10.0 mi South 12.7 mph - N/A   Scattered Clouds
4:35 AM 39.2 °F 30.8 °F 32.0 °F 75% 29.87 in 10.0 mi South 15.0 mph 19.6 mph N/A   Scattered Clouds
4:55 AM 39.2 °F 30.8 °F 32.0 °F 75% 29.87 in 10.0 mi South 15.0 mph - N/A   Scattered Clouds
5:15 AM 39.2 °F 30.2 °F 32.0 °F 75% 29.86 in 10.0 mi South 17.3 mph - N/A   Scattered Clouds
5:35 AM 37.4 °F 28.2 °F 32.0 °F 81% 29.86 in 10.0 mi South 16.1 mph - N/A   Scattered Clouds
5:55 AM 37.4 °F 28.5 °F 32.0 °F 81% 29.86 in 10.0 mi South 15.0 mph - N/A   Scattered Clouds
6:15 AM 37.4 °F 27.8 °F 32.0 °F 81% 29.85 in 10.0 mi South 17.3 mph - N/A   Mostly Cloudy
6:35 AM 37.4 °F 27.8 °F 32.0 °F 81% 29.85 in 10.0 mi South 17.3 mph - N/A   Overcast
6:55 AM 37.4 °F 28.5 °F 32.0 °F 81% 29.86 in 10.0 mi South 15.0 mph - N/A   Scattered Clouds
7:15 AM 37.4 °F 29.3 °F 33.8 °F 87% 29.87 in 10.0 mi South 12.7 mph - N/A   Clear
7:35 AM 37.4 °F 29.3 °F 33.8 °F 87% 29.88 in 10.0 mi South 12.7 mph - N/A   Scattered Clouds
7:55 AM 37.4 °F 29.8 °F 33.8 °F 87% 29.88 in 10.0 mi South 11.5 mph - N/A   Clear
8:15 AM 39.2 °F 32.0 °F 33.8 °F 81% 29.89 in 10.0 mi South 11.5 mph - N/A   Clear
8:35 AM 39.2 °F 32.5 °F 33.8 °F 81% 29.89 in 10.0 mi South 10.4 mph - N/A   Clear
8:54 AM 42.8 °F 38.6 °F 35.6 °F 76% 29.88 in 10.0 mi SSW 6.9 mph - N/A   Clear
9:15 AM 44.6 °F 39.2 °F 35.6 °F 71% 29.88 in 10.0 mi SSW 10.4 mph - N/A   Scattered Clouds
9:35 AM 46.4 °F 40.1 °F 37.4 °F 71% 29.88 in 10.0 mi SW 15.0 mph 18.4 mph N/A   Scattered Clouds
9:54 AM 48.2 °F - 37.4 °F 66% 29.88 in 7.0 mi WSW 15.0 mph - N/A   Scattered Clouds
10:15 AM 48.2 °F - 37.4 °F 66% 29.88 in 7.0 mi WSW 11.5 mph - N/A   Mostly Cloudy
10:35 AM 51.8 °F - 39.2 °F 62% 29.88 in 7.0 mi WSW 10.4 mph - N/A   Scattered Clouds
10:54 AM 51.8 °F - 39.2 °F 62% 29.88 in 7.0 mi SSW 8.1 mph - N/A   Scattered Clouds
11:15 AM 51.8 °F - 39.2 °F 62% 29.87 in 10.0 mi SSW 11.5 mph - N/A   Scattered Clouds
11:35 AM 53.6 °F - 39.2 °F 58% 29.87 in 10.0 mi SW 9.2 mph - N/A   Clear
11:54 AM 53.6 °F - 41.0 °F 62% 29.87 in 10.0 mi SW 13.8 mph - N/A   Clear
12:15 PM 55.4 °F - 42.8 °F 63% 29.86 in 10.0 mi SSW 9.2 mph - N/A   Clear
12:35 PM 57.2 °F - 42.8 °F 59% 29.86 in 10.0 mi SW 10.4 mph 18.4 mph N/A   Clear
12:54 PM 57.2 °F - 42.8 °F 59% 29.85 in 10.0 mi WSW 11.5 mph 17.3 mph N/A   Clear
1:15 PM 57.2 °F - 42.8 °F 59% 29.85 in 10.0 mi SW 8.1 mph - N/A   Clear
1:35 PM 59.0 °F - 42.8 °F 55% 29.84 in 10.0 mi WSW 6.9 mph - N/A   Clear
1:55 PM 60.8 °F - 42.8 °F 52% 29.84 in 10.0 mi WSW 8.1 mph - N/A   Clear
2:15 PM 60.8 °F - 42.8 °F 52% 29.83 in 10.0 mi SSW 6.9 mph - N/A   Clear
2:35 PM 60.8 °F - 42.8 °F 52% 29.84 in 10.0 mi West 6.9 mph - N/A   Clear
2:55 PM 60.8 °F - 42.8 °F 52% 29.83 in 10.0 mi South 6.9 mph - N/A   Clear
3:15 PM 60.8 °F - 42.8 °F 52% 29.83 in 10.0 mi SSW 5.8 mph - N/A   Clear
3:35 PM 62.6 °F - 44.6 °F 52% 29.82 in 10.0 mi Calm Calm - N/A   Clear
3:55 PM 62.6 °F - 42.8 °F 48% 29.82 in 10.0 mi WNW 3.5 mph - N/A   Clear
3:58 PM 62.6 °F - 42.8 °F 48% 29.82 in 10.0 mi Calm Calm - N/A   Clear
4:35 PM 60.8 °F - 41.0 °F 48% 29.81 in 10.0 mi Calm Calm - N/A   Scattered Clouds
4:55 PM 62.6 °F - 41.0 °F 45% 29.81 in 10.0 mi Calm Calm - N/A   Clear
4:59 PM 62.6 °F - 42.8 °F 48% 29.81 in 10.0 mi Calm Calm - N/A Thunderstorm Clear
6:19 PM 62.6 °F - 41.0 °F 45% 29.81 in 10.0 mi NW 4.6 mph - N/A   Clear
6:35 PM 60.8 °F - 42.8 °F 52% 29.81 in 10.0 mi NNE 5.8 mph - N/A Thunderstorm Thunderstorm
6:55 PM 60.8 °F - 42.8 °F 52% 29.81 in 10.0 mi NNE 3.5 mph - N/A Thunderstorm Thunderstorm
7:15 PM 60.8 °F - 42.8 °F 52% 29.81 in 10.0 mi Calm Calm - N/A Thunderstorm Thunderstorm
7:34 PM 59.0 °F - 48.2 °F 67% 29.81 in 10.0 mi NE 4.6 mph - N/A Thunderstorm Thunderstorm
7:55 PM 55.4 °F - 44.6 °F 67% 29.82 in 10.0 mi SSE 15.0 mph 18.4 mph N/A   Clear
8:14 PM 53.6 °F - 44.6 °F 72% 29.84 in 10.0 mi SSE 9.2 mph - N/A Thunderstorm Clear
8:35 PM 53.6 °F - 44.6 °F 72% 29.85 in 10.0 mi South 10.4 mph - N/A   Clear
8:55 PM 51.8 °F - 42.8 °F 71% 29.85 in 10.0 mi South 16.1 mph - N/A   Scattered Clouds
9:15 PM 51.8 °F - 42.8 °F 71% 29.85 in 10.0 mi South 15.0 mph - N/A   Mostly Cloudy
9:35 PM 51.8 °F - 42.8 °F 71% 29.86 in 10.0 mi South 12.7 mph - N/A   Scattered Clouds
9:55 PM 50.0 °F - 44.6 °F 82% 29.87 in 10.0 mi South 10.4 mph - N/A Thunderstorm Thunderstorm
10:15 PM 50.0 °F - 42.8 °F 76% 29.87 in 10.0 mi SSW 13.8 mph 18.4 mph N/A   Scattered Clouds
10:34 PM 50.0 °F - 42.8 °F 76% 29.87 in 10.0 mi South 16.1 mph - N/A   Clear
10:55 PM 50.0 °F - 42.8 °F 76% 29.87 in 10.0 mi South 12.7 mph - N/A   Clear
11:15 PM 50.0 °F - 42.8 °F 76% 29.87 in 10.0 mi South 12.7 mph - N/A   Clear
11:34 PM 48.2 °F - 42.8 °F 82% 29.86 in 10.0 mi South 12.7 mph - N/A   Clear
11:55 PM 48.2 °F - 42.8 °F 82% 29.85 in 10.0 mi South 10.4 mph - N/A   Clear